Location: *
(49.6619°S, 177.4603°W)
Time: 04:50:16
(UTC+00:00)

Ariane Rocket - Pass Details

Date: 31 January 2023
Orbit: 758 x 769 km, 98.6° (Epoch: 01 April)

Event Time Altitude Azimuth Distance (km) Brightness Sun altitude
Rises 08:47:14 0° 155° (SSE) 3,261 6.5 -10.2°
Reaches altitude 10° 08:50:01 10° 141° (SE) 2,326 5.6 -10.5°
Maximum altitude 08:54:06 24° 88° (E) 1,574 4.2 -11.0°
Enters shadow 08:56:54 15° 46° (NE) 1,957 4.4 -11.3°
